This is the latest recevied weather packets stored in our database for station/object M0TJX-1. If no packets are shown the sender has not sent any weather packets the latest 10 day(s).
| Time | Temp. | Humidity | Pressure | Rain* | Wind** | Luminosity | Snow |
|---|---|---|---|---|---|---|---|
| 1777474705 | 18.89° C | 39% | 1021.3 hPa | 0 mm | - | - | - |
| 1777473805 | 18.89° C | 38% | 1021.4 hPa | 0 mm | - | - | - |
| 1777472905 | 18.89° C | 39% | 1021.8 hPa | 0 mm | - | - | - |
| 1777472005 | 18.89° C | 38% | 1021.7 hPa | 0 mm | - | - | - |
| 1777471105 | 18.89° C | 39% | 1021.9 hPa | 0 mm | - | - | - |
| 1777470205 | 18.89° C | 39% | 1022.2 hPa | 0 mm | - | - | - |
| 1777469305 | 19.44° C | 38% | 1022.2 hPa | 0 mm | - | - | - |
| 1777468405 | 18.89° C | 38% | 1022.1 hPa | 0 mm | - | - | - |
| 1777467505 | 18.89° C | 39% | 1022.4 hPa | 0 mm | - | - | - |
| 1777466605 | 18.89° C | 41% | 1022.4 hPa | 0 mm | - | - | - |
| 1777465705 | 18.89° C | 41% | 1022.4 hPa | 0 mm | - | - | - |
| 1777464805 | 18.89° C | 42% | 1022.8 hPa | 0 mm | - | - | - |
| 1777463905 | 18.33° C | 44% | 1023.1 hPa | 0 mm | - | - | - |
| 1777463005 | 18.33° C | 46% | 1022.8 hPa | 0 mm | - | - | - |
| 1777462105 | 17.78° C | 46% | 1022.8 hPa | 0 mm | - | - | - |
| 1777461205 | 17.78° C | 46% | 1022.9 hPa | 0 mm | - | - | - |
| 1777460305 | 17.22° C | 50% | 1022.6 hPa | 0 mm | - | - | - |
| 1777459405 | 16.67° C | 50% | 1022.7 hPa | 0 mm | - | - | - |
| 1777458505 | 16.67° C | 50% | 1022.9 hPa | 0 mm | - | - | - |
| 1777457605 | 16.11° C | 52% | 1023.3 hPa | 0 mm | - | - | - |
| 1777456705 | 15.56° C | 53% | 1023.5 hPa | 0 mm | - | - | - |
| 1777455805 | 15.56° C | 54% | 1023.4 hPa | 0 mm | - | - | - |
| 1777454905 | 15° C | 58% | 1023.3 hPa | 0 mm | - | - | - |
| 1777454005 | 13.89° C | 60% | 1023.1 hPa | 0 mm | - | - | - |
| 1777453105 | 13.33° C | 62% | 1023.4 hPa | 0 mm | - | - | - |
* Rain latest hour (hover to see other rain measurements)
** Current wind speed in m/s (hover to see current wind gust speed)